EW6005 Weather Reports


Display with metric or nautical units.
time (UTC)temp
F
wind
direction
speed
MPH
gust
MPH
rain 1hr
in
rain 24hr
in
rain mn
in
humidity
%
barometer
mb
20260508220448 79 200 0.0 2.0 0.00 0.00 0.00 85 995.0
20260508215945 79 0 1.0 3.0 0.00 0.00 0.00 85 995.0
20260508215446 79 0 1.0 3.0 0.00 0.00 0.00 84 995.1
20260508214946 80 0 0.0 3.0 0.00 0.00 0.00 84 995.0
20260508214443 80 0 0.0 3.0 0.00 0.00 0.00 84 995.0
20260508213943 80 0 0.0 2.0 0.00 0.00 0.00 84 995.0
20260508213443 80 0 0.0 2.0 0.00 0.00 0.00 85 995.0
20260508212942 79 0 0.0 3.0 0.00 0.00 0.00 85 995.0
20260508212442 79 0 1.0 4.0 0.00 0.00 0.00 85 995.2
20260508211941 79 0 1.0 4.0 0.00 0.00 0.00 84 995.2
20260508211441 79 0 1.0 4.0 0.00 0.00 0.00 84 995.2
20260508210940 79 0 0.0 2.0 0.00 0.00 0.00 85 995.2
20260508210440 79 0 0.0 2.0 0.00 0.00 0.00 85 995.2
20260508205939 79 0 1.0 3.0 0.00 0.00 0.00 84 995.4
20260508205702 79 0 1.0 3.0 0.00 0.00 0.00 84 995.5
20260508204937 79 0 0.0 3.0 0.00 0.00 0.00 85 995.5
20260508204918 79 0 0.0 6.0 0.00 0.00 0.00 85 995.5
20260508203935 79 167 1.0 6.0 0.00 0.00 0.00 84 995.6
20260508203435 79 313 1.0 4.0 0.00 0.00 0.00 85 995.7
20260508202933 79 135 1.0 4.0 0.00 0.00 0.00 85 995.6
20260508202433 78 134 1.0 4.0 0.00 0.00 0.00 85 995.7
20260508201932 78 221 1.0 4.0 0.00 0.00 0.00 85 995.9
20260508201429 78 217 0.0 3.0 0.00 0.00 0.00 85 995.8
20260508200929 78 102 0.0 1.0 0.00 0.00 0.00 85 995.8
20260508200430 78 164 0.0 3.0 0.00 0.00 0.00 86 996.0
20260508195927 78 164 0.0 3.0 0.00 0.00 0.00 86 996.1
20260508195427 78 51 0.0 1.0 0.00 0.00 0.00 86 996.0
20260508194928 78 141 0.0 1.0 0.00 0.00 0.00 86 996.0
20260508194902 78 211 0.0 1.0 0.00 0.00 0.00 86 996.2
20260508193926 77 205 0.0 0.0 0.00 0.00 0.00 86 996.2
20260508193426 77 176 0.0 1.0 0.00 0.00 0.00 86 996.1
20260508192925 77 153 0.0 2.0 0.00 0.00 0.00 86 996.3
20260508192425 77 115 0.0 2.0 0.00 0.00 0.00 86 996.4
20260508191923 77 92 0.0 1.0 0.00 0.00 0.00 86 996.5
20260508191421 77 307 0.0 0.0 0.00 0.00 0.00 86 996.6
20260508190921 77 25 0.0 0.0 0.00 0.00 0.00 86 996.7
20260508190421 77 117 0.0 0.0 0.00 0.00 0.00 86 996.6
20260508185921 77 134 0.0 0.0 0.00 0.00 0.00 86 996.6
20260508185641 77 123 0.0 1.0 0.00 0.00 0.00 86 996.7
20260508184921 76 92 0.0 1.0 0.00 0.00 0.00 86 996.6
20260508184905 76 348 0.0 2.0 0.00 0.00 0.00 86 996.7
20260508183921 76 0 1.0 2.0 0.00 0.00 0.00 86 996.9
20260508183420 76 0 0.0 2.0 0.00 0.00 0.00 87 996.9
20260508182919 76 186 0.0 2.0 0.00 0.00 0.00 86 996.9
20260508182420 76 115 0.0 2.0 0.00 0.00 0.00 87 996.9
20260508181919 75 308 0.0 2.0 0.00 0.00 0.00 87 996.8
20260508181416 75 233 0.0 3.0 0.00 0.00 0.00 87 996.9
20260508180917 75 0 0.0 3.0 0.00 0.00 0.00 87 997.0
20260508180416 75 0 0.0 2.0 0.00 0.00 0.00 87 997.0
20260508175911 74 0 1.0 3.0 0.00 0.00 0.00 86 997.1
20260508175411 74 0 1.0 3.0 0.00 0.00 0.00 86 997.3
20260508174911 74 0 0.0 2.0 0.00 0.00 0.00 86 997.4
20260508174411 74 0 0.0 2.0 0.00 0.00 0.00 86 997.6
20260508173911 74 0 0.0 2.0 0.00 0.00 0.00 86 997.6
20260508173850 74 0 0.0 2.0 0.00 0.00 0.00 86 997.7
20260508172911 74 0 0.0 2.0 0.00 0.00 0.00 86 997.9
20260508172413 74 0 0.0 1.0 0.00 0.00 0.00 85 997.8
20260508172134 74 0 0.0 0.0 0.00 0.00 0.00 86 997.7
20260508171408 74 0 0.0 1.0 0.00 0.00 0.00 86 997.7
20260508170907 74 0 0.0 3.0 0.00 0.00 0.00 85 997.6
20260508170407 74 0 1.0 3.0 0.00 0.00 0.00 86 997.6
20260508165907 74 0 1.0 3.0 0.00 0.00 0.00 85 997.7
20260508165407 74 0 1.0 3.0 0.00 0.00 0.00 86 997.8
20260508164907 74 0 1.0 2.0 0.00 0.00 0.00 87 997.8
20260508164407 74 0 1.0 2.0 0.00 0.00 0.00 86 997.9
20260508163907 74 0 0.0 2.0 0.00 0.00 0.00 86 998.0
20260508163407 73 0 0.0 2.0 0.00 0.00 0.00 87 998.2
20260508163120 73 0 0.0 2.0 0.00 0.00 0.00 87 998.2
20260508162403 73 0 0.0 3.0 0.00 0.00 0.00 86 998.2
20260508161903 73 0 1.0 3.0 0.00 0.00 0.00 86 998.2
20260508161403 73 0 0.0 3.0 0.00 0.00 0.00 86 998.0
20260508160904 73 0 1.0 4.0 0.00 0.00 0.00 86 998.1
20260508160403 73 0 1.0 4.0 0.00 0.00 0.00 87 998.0
20260508155903 72 0 1.0 2.0 0.00 0.00 0.00 87 998.1
20260508155402 72 9 1.0 2.0 0.00 0.00 0.00 87 998.3
20260508154903 72 53 1.0 2.0 0.00 0.00 0.00 88 998.3
20260508154359 71 185 1.0 3.0 0.00 0.00 0.00 89 998.5
20260508153859 70 61 1.0 4.0 0.00 0.00 0.00 89 998.6
20260508153359 70 0 1.0 4.0 0.00 0.00 0.00 89 998.8
20260508152859 69 42 1.0 3.0 0.00 0.00 0.00 89 998.9
20260508152400 69 0 0.0 3.0 0.00 0.00 0.00 89 998.8
20260508152117 69 0 1.0 2.0 0.00 0.00 0.00 89 999.0
20260508151400 69 62 0.0 3.0 0.00 0.00 0.00 89 999.0
20260508150900 69 179 1.0 3.0 0.00 0.00 0.00 89 999.1
20260508150359 69 252 1.0 3.0 0.00 0.00 0.00 89 999.2
20260508145859 69 0 1.0 4.0 0.00 0.00 0.00 89 999.2
20260508145359 68 0 1.0 5.0 0.00 0.00 0.00 89 999.2
20260508144859 68 0 1.0 5.0 0.00 0.00 0.00 90 999.2
20260508144617 68 0 1.0 2.0 0.00 0.00 0.00 90 999.1
20260508143900 68 348 1.0 2.0 0.00 0.00 0.00 90 999.2
20260508143359 68 32 1.0 3.0 0.00 0.00 0.00 90 999.3
20260508143116 67 50 0.0 3.0 0.00 0.00 0.00 90 999.5
20260508142357 68 53 0.0 2.0 0.00 0.00 0.00 90 999.6
20260508141856 68 95 0.0 4.0 0.00 0.00 0.00 90 999.5
20260508141351 68 176 1.0 4.0 0.00 0.00 0.00 90 999.4
20260508141340 68 38 1.0 3.0 0.00 0.00 0.00 90 999.3
20260508140351 68 311 1.0 3.0 0.00 0.00 0.00 90 999.4
20260508135851 68 302 1.0 3.0 0.00 0.00 0.00 90 999.4
20260508135351 68 342 1.0 3.0 0.00 0.00 0.00 90 999.3
20260508134851 68 348 1.0 3.0 0.00 0.00 0.00 90 999.3
20260508134351 68 0 1.0 4.0 0.00 0.00 0.00 89 999.3
20260508133852 68 0 1.0 4.0 0.00 0.00 0.00 89 999.4
20260508133351 68 0 1.0 4.0 0.00 0.00 0.00 90 999.4
20260508132851 68 0 0.0 2.0 0.00 0.00 0.00 90 999.2
20260508132350 68 0 0.0 1.0 0.00 0.00 0.00 90 999.0
20260508131851 67 319 0.0 1.0 0.00 0.00 0.00 90 998.8
20260508131831 67 300 0.0 0.0 0.00 0.00 0.00 90 999.0
20260508130850 67 0 0.0 1.0 0.00 0.00 0.00 89 998.8
20260508130351 67 300 1.0 2.0 0.00 0.00 0.00 89 998.7
20260508125852 67 0 1.0 2.0 0.00 0.00 0.00 90 998.7
20260508125348 67 146 1.0 2.0 0.00 0.00 0.00 90 998.9
20260508125111 67 341 1.0 3.0 0.00 0.00 0.00 89 998.9
20260508124346 67 348 1.0 4.0 0.00 0.00 0.00 89 998.5
20260508124106 67 167 1.0 4.0 0.00 0.00 0.00 89 998.3
20260508123609 67 149 1.0 3.0 0.00 0.00 0.00 89 998.6
20260508123105 67 190 1.0 2.0 0.00 0.00 0.00 89 999.0
20260508122345 67 265 0.0 2.0 0.00 0.00 0.00 88 999.1
20260508122101 67 314 0.0 2.0 0.00 0.00 0.00 88 999.0
20260508121343 67 334 0.0 0.0 0.00 0.00 0.00 88 998.9
20260508120840 67 334 0.0 0.0 0.00 0.00 0.00 87 998.8
20260508120341 67 333 0.0 0.0 0.00 0.00 0.00 87 998.7
20260508115841 67 333 0.0 0.0 0.00 0.00 0.00 87 999.0
20260508115339 67 329 0.0 0.0 0.00 0.00 0.00 87 998.9
20260508114839 67 0 0.0 0.0 0.00 0.00 0.00 87 998.7
20260508114336 67 0 0.0 0.0 0.00 0.00 0.00 87 998.9
20260508113835 67 0 0.0 0.0 0.00 0.00 0.00 87 999.1
20260508113603 68 0 0.0 0.0 0.00 0.00 0.00 87 999.0
20260508112833 68 0 0.0 0.0 0.00 0.00 0.00 86 999.1
20260508112332 68 0 0.0 0.0 0.00 0.00 0.00 86 999.0
20260508111828 68 265 0.0 0.0 0.00 0.00 0.00 86 998.9
20260508111328 68 265 0.0 0.0 0.00 0.00 0.00 86 999.0
20260508110827 68 284 0.0 1.0 0.00 0.00 0.00 86 999.0
20260508110329 68 284 0.0 2.0 0.00 0.00 0.00 86 998.9
20260508105825 68 284 0.0 2.0 0.00 0.00 0.00 86 998.4
20260508105326 68 61 1.0 4.0 0.00 0.00 0.00 86 998.3
20260508104823 68 327 1.0 4.0 0.00 0.00 0.00 85 998.6
20260508104322 68 326 1.0 3.0 0.00 0.00 0.00 86 998.5
20260508104306 68 323 1.0 2.0 0.00 0.00 0.00 85 998.5
20260508103538 68 306 0.0 2.0 0.00 0.00 0.00 85 998.5
20260508102819 68 263 0.0 1.0 0.00 0.00 0.00 85 998.6
20260508102316 68 263 0.0 0.0 0.00 0.00 0.00 86 998.9
20260508101817 68 263 0.0 0.0 0.00 0.00 0.00 86 999.2
20260508101313 68 263 0.0 0.0 0.00 0.00 0.00 85 999.2
20260508100815 68 350 0.0 0.0 0.00 0.00 0.00 85 999.0
20260508100312 68 346 0.0 0.0 0.00 0.00 0.00 86 999.3
20260508095811 68 346 0.0 0.0 0.00 0.00 0.00 85 999.3
20260508095311 68 321 0.0 1.0 0.00 0.00 0.00 85 999.1
20260508094808 68 342 0.0 1.0 0.00 0.00 0.00 85 998.5
20260508094306 69 165 0.0 1.0 0.00 0.00 0.00 85 998.3
20260508094028 68 215 0.0 0.0 0.00 0.00 0.00 85 998.5
20260508093538 68 215 0.0 1.0 0.00 0.00 0.00 85 998.8
20260508092806 68 215 0.0 1.0 0.00 0.00 0.00 85 998.8
20260508092740 68 215 0.0 1.0 0.00 0.00 0.00 85 998.6
20260508091800 68 215 0.0 2.0 0.00 0.00 0.00 85 998.5
20260508091257 68 215 0.0 3.0 0.00 0.00 0.00 84 998.7
20260508090756 68 300 0.0 3.0 0.00 0.00 0.00 84 998.4
20260508090258 68 270 0.0 0.0 0.00 0.00 0.00 84 998.3
20260508085757 68 270 0.0 0.0 0.00 0.00 0.00 84 998.3
20260508085252 68 270 0.0 0.0 0.00 0.00 0.00 84 998.4
20260508084753 68 270 0.0 1.0 0.00 0.00 0.00 84 998.7
20260508084520 68 270 0.0 1.0 0.00 0.00 0.00 83 998.7
20260508083752 68 270 0.0 1.0 0.00 0.00 0.00 83 998.7
20260508083248 68 269 0.0 0.0 0.00 0.00 0.00 84 998.8
20260508082748 68 269 0.0 2.0 0.00 0.00 0.00 83 998.7
20260508082249 68 269 0.0 2.0 0.00 0.00 0.00 83 998.8
20260508081749 68 269 0.0 3.0 0.00 0.00 0.00 84 998.8
20260508081513 68 333 0.0 3.0 0.00 0.00 0.00 83 998.7
20260508080749 68 349 0.0 2.0 0.00 0.00 0.00 83 998.6
20260508080248 68 324 0.0 2.0 0.00 0.00 0.00 83 998.6
20260508075749 68 324 1.0 2.0 0.00 0.00 0.00 83 998.7
20260508075249 68 324 0.0 2.0 0.00 0.00 0.00 83 998.9
20260508074745 68 298 0.0 2.0 0.00 0.00 0.00 83 999.0
20260508074244 68 274 0.0 1.0 0.00 0.00 0.00 83 999.1
20260508073744 68 274 0.0 2.0 0.00 0.00 0.00 84 999.4
20260508073504 68 274 0.0 2.0 0.00 0.00 0.00 83 999.5
20260508072744 68 243 0.0 0.0 0.00 0.00 0.00 83 999.4
20260508072245 68 243 0.0 0.0 0.00 0.00 0.00 83 999.4
20260508071745 68 243 0.0 0.0 0.00 0.00 0.00 83 999.3
20260508071511 68 243 0.0 1.0 0.00 0.00 0.00 83 999.2
20260508071002 68 243 0.0 1.0 0.00 0.00 0.00 83 999.3
20260508070245 68 243 0.0 1.0 0.00 0.00 0.00 83 999.4
20260508065744 68 243 0.0 1.0 0.00 0.00 0.00 83 999.3
20260508065244 68 0 0.0 0.0 0.00 0.00 0.00 83 999.2
20260508064745 68 0 0.0 0.0 0.00 0.00 0.00 83 999.2
20260508064244 68 0 0.0 0.0 0.00 0.00 0.00 83 999.3
20260508063744 68 350 0.0 0.0 0.00 0.00 0.00 83 999.5
20260508063244 68 297 0.0 0.0 0.00 0.00 0.00 84 999.6
20260508062746 68 297 0.0 0.0 0.00 0.00 0.00 84 999.5
20260508062244 68 297 0.0 0.0 0.00 0.00 0.00 83 999.6
20260508062010 68 297 0.0 0.0 0.00 0.00 0.00 83 999.9
20260508061244 68 297 0.0 0.0 0.00 0.00 0.00 83 999.7
20260508060746 68 297 0.0 0.0 0.00 0.00 0.00 83 999.4
20260508060505 68 297 0.0 0.0 0.00 0.00 0.00 83 999.3
20260508055745 68 297 0.0 0.0 0.00 0.00 0.00 83 999.0
20260508055723 68 297 0.0 0.0 0.00 0.00 0.00 83 999.0
20260508054745 68 297 0.0 0.0 0.00 0.00 0.00 83 999.3
20260508054246 68 297 0.0 0.0 0.00 0.00 0.00 82 999.5
20260508053745 68 258 0.0 2.0 0.00 0.00 0.00 82 999.5
20260508053244 68 342 0.0 2.0 0.00 0.00 0.00 82 999.5
20260508052744 68 319 0.0 0.0 0.00 0.00 0.00 82 999.2
20260508052244 68 334 0.0 0.0 0.00 0.00 0.00 82 999.0
20260508051744 68 267 0.0 0.0 0.00 0.00 0.00 81 999.0
20260508051244 68 267 0.0 0.0 0.00 0.00 0.00 81 999.1
20260508051009 68 267 0.0 0.0 0.00 0.00 0.00 81 999.2
20260508050244 68 267 0.0 0.0 0.00 0.00 0.00 81 999.3
20260508050002 68 268 0.0 0.0 0.00 0.00 0.00 81 999.2
20260508045235 69 268 0.0 0.0 0.00 0.00 0.00 81 999.4
20260508044735 69 268 0.0 0.0 0.00 0.00 0.00 81 999.3
20260508044232 69 268 0.0 0.0 0.00 0.00 0.00 81 999.2
20260508043954 69 268 0.0 0.0 0.00 0.00 0.00 81 999.2
20260508043453 69 268 0.0 0.0 0.00 0.00 0.00 80 999.2
20260508042731 69 268 0.0 0.0 0.00 0.00 0.00 81 999.3
20260508042228 69 268 0.0 0.0 0.00 0.00 0.00 81 999.4
20260508041725 69 268 0.0 0.0 0.00 0.00 0.00 81 999.4
20260508041225 69 268 0.0 0.0 0.00 0.00 0.00 81 999.6
20260508040725 69 268 0.0 0.0 0.00 0.00 0.00 80 999.7
20260508040227 69 268 0.0 0.0 0.00 0.00 0.00 80 999.8
20260508035722 69 105 0.0 0.0 0.00 0.00 0.00 80 999.5
20260508035220 69 105 0.0 0.0 0.00 0.00 0.00 80 999.3
20260508034719 69 108 0.0 2.0 0.00 0.00 0.00 80 999.2
20260508034216 69 53 0.0 2.0 0.00 0.00 0.00 80 999.1
20260508033716 69 21 0.0 2.0 0.00 0.00 0.00 81 999.4
20260508033216 69 48 1.0 2.0 0.00 0.00 0.00 80 999.2
20260508032713 69 48 0.0 2.0 0.00 0.00 0.00 80 999.2
20260508032213 69 302 0.0 2.0 0.00 0.00 0.00 81 999.6
20260508031712 69 344 0.0 1.0 0.00 0.00 0.00 81 999.4
20260508031212 69 0 0.0 1.0 0.00 0.00 0.00 81 999.4
20260508031151 69 0 0.0 2.0 0.00 0.00 0.00 81 999.5
20260508030204 69 0 0.0 2.0 0.00 0.00 0.00 81 999.4
20260508025704 69 0 0.0 1.0 0.00 0.00 0.00 81 999.5
20260508025201 69 0 0.0 1.0 0.00 0.00 0.00 82 999.4
20260508024659 69 0 0.0 1.0 0.00 0.00 0.00 82 999.7
20260508024156 69 0 0.0 1.0 0.00 0.00 0.00 82 999.8
20260508023656 70 0 0.0 2.0 0.00 0.00 0.00 82 999.9
20260508023155 70 0 0.0 3.0 0.00 0.00 0.00 82 999.9
20260508022652 70 0 0.0 3.0 0.00 0.00 0.00 83 999.9
20260508022151 70 0 0.0 0.0 0.00 0.00 0.00 83 999.6
20260508021650 70 0 0.0 0.0 0.00 0.00 0.00 83 999.6
20260508021144 70 0 0.0 0.0 0.00 0.00 0.00 83 999.7
20260508020643 70 0 0.0 0.0 0.00 0.00 0.00 82 999.7
20260508020142 71 0 0.0 0.0 0.00 0.00 0.00 82 999.6
20260508015642 71 0 0.0 0.0 0.00 0.00 0.00 82 999.7
20260508015138 71 0 0.0 0.0 0.00 0.00 0.00 82 999.7
20260508014638 71 0 0.0 0.0 0.00 0.00 0.00 81 999.8
20260508014136 71 0 0.0 0.0 0.00 0.00 0.00 81 999.6
20260508013634 71 0 0.0 0.0 0.00 0.00 0.00 81 999.7
20260508013355 71 0 0.0 0.0 0.00 0.00 0.00 81 999.8
20260508012855 72 0 0.0 0.0 0.00 0.00 0.00 80 999.5
20260508012134 72 0 0.0 0.0 0.00 0.00 0.00 79 999.5
20260508011853 72 0 0.0 0.0 0.00 0.00 0.00 79 999.5
20260508011135 72 0 0.0 0.0 0.00 0.00 0.00 79 999.6
20260508010858 72 0 0.0 0.0 0.00 0.00 0.00 79 999.6
20260508010130 72 0 0.0 0.0 0.00 0.00 0.00 78 999.4
20260508005630 73 0 0.0 0.0 0.00 0.00 0.00 79 999.4
20260508005130 73 0 0.0 0.0 0.00 0.00 0.00 79 999.4
20260508004630 73 0 0.0 0.0 0.00 0.00 0.00 78 999.3
20260508004348 73 0 0.0 0.0 0.00 0.00 0.00 78 999.3
20260508003622 73 0 0.0 0.0 0.00 0.00 0.00 78 999.1
20260508003122 74 0 0.0 0.0 0.00 0.00 0.00 78 998.8
20260508002841 74 0 0.0 1.0 0.00 0.00 0.00 78 999.2
20260508002122 74 0 0.0 1.0 0.00 0.00 0.00 78 999.4
20260508001623 74 0 0.0 1.0 0.00 0.00 0.00 77 999.5
20260508001123 74 0 0.0 1.0 0.00 0.00 0.00 77 999.5
20260508000622 74 0 0.0 2.0 0.00 0.00 0.00 76 999.6
20260508000123 74 334 0.0 2.0 0.00 0.00 0.00 76 999.7
20260507235623 74 0 0.0 2.0 0.00 0.00 0.00 76 999.6
20260507235122 75 0 0.0 3.0 0.00 0.00 0.00 75 999.5
20260507234841 75 0 0.0 3.0 0.00 0.00 0.00 75 999.7
20260507234122 75 0 1.0 2.0 0.00 0.00 0.00 75 999.6
20260507233622 75 0 1.0 2.0 0.00 0.00 0.00 75 999.8
20260507233122 76 0 1.0 3.0 0.00 0.00 0.00 75 999.7
20260507232625 76 0 1.0 3.0 0.00 0.00 0.00 75 999.6
20260507232123 76 0 1.0 2.0 0.00 0.00 0.00 76 999.6
20260507231622 76 0 1.0 3.0 0.00 0.00 0.00 76 999.5
20260507231122 76 0 1.0 3.0 0.00 0.00 0.00 75 999.4
20260507230622 76 0 0.0 3.0 0.00 0.00 0.00 75 999.4
20260507230122 76 313 0.0 2.0 0.00 0.00 0.00 75 999.4
20260507225622 76 313 1.0 3.0 0.00 0.00 0.00 75 999.5
20260507225344 76 313 1.0 5.0 0.00 0.00 0.00 75 999.4
20260507224622 76 0 0.0 5.0 0.00 0.00 0.00 77 999.2
20260507224122 76 0 0.0 2.0 0.00 0.00 0.00 76 999.1
20260507223622 76 0 1.0 2.0 0.00 0.00 0.00 76 999.1
20260507223339 76 0 1.0 5.0 0.00 0.00 0.00 75 998.9
20260507222618 76 0 1.0 5.0 0.00 0.00 0.00 74 999.0
20260507222118 76 0 1.0 2.0 0.00 0.00 0.00 75 999.0
20260507221618 76 0 1.0 2.0 0.00 0.00 0.00 77 999.1
20260507221118 76 0 0.0 2.0 0.00 0.00 0.00 76 999.0
20260507220847 76 0 1.0 1.0 0.00 0.00 0.00 77 999.1